Location: ???? ??
(36.0534°N, 43.5630°E)
Time: 06:49:21
(UTC+00:00)

ARGOS - Pass Details

Date: 18 September 2019
Orbit: 821 x 834 km, 98.5° (Epoch: 14 October)

Event Time Altitude Azimuth Distance (km) Brightness Sun altitude
Exits shadow 17:30:58 67° 224° (SW) 892 3.2 -28.5°
Maximum altitude 17:31:24 70° 258° (WSW) 873 3.3 -28.5°
Drops below altitude 10° 17:36:46 10° 342° (NNW) 2,431 6.1 -29.5°
Sets 17:39:09 0° 345° (NNW) 3,370 6.9 -29.9°
